Location: Cuiabá
(15.6014°S, 56.0979°W)
Time: 20:20:19
(UTC-04:00)

Hubble Space Telescope - Pass Details

Date: 01 December 2022
Orbit: 529 x 532 km, 28.5° (Epoch: 26 January)

Event Time Altitude Azimuth Distance (km) Brightness Sun altitude
Rises 19:06:25 0° 280° (W) 2,668 5.2 -14.6°
Reaches altitude 10° 19:08:46 10° 272° (W) 1,781 4.4 -15.1°
Maximum altitude 19:12:39 40° 201° (SSW) 795 2.0 -15.9°
Drops below altitude 10° 19:16:34 10° 130° (SE) 1,788 3.2 -16.7°
Enters shadow 19:17:11 - 128° (SE) 2,016 3.5 -16.9°
